Terug naar catalogus

FENGYUN 1C DEB

ActiefPO
NORAD 32230·DEBRIS·🇨🇳 China

Gelanceerd May 10, 1999 vanaf Taiyuan Satellite Launch Center

Loading…

Volgende Passages (komende 24 uur)

TLE

VersSource: Space-Track

Epoch: Sep 14, 2026, 10:39 UTC

1 32230U 99025CWC 26257.44389640  .00006427  00000-0  12621-2 0  9998
2 32230  98.8889  71.3168 0045962 324.9882  64.3679 14.62384891646928

Volg FENGYUN 1C DEB in realtime met AllMySat

Download on the App Store